"Pseudo-MPEC" for C0AMY42

Created 2019 Mar 20 14:18:22 UT using Find_Orb

Click here for an explanation of pseudo-MPECs

 
 Astrometry: 
     C0AMY42  C2019 03 15.35891 13 14 40.53 -17 39 58.2    ~3FC3 20.3 GVNEOCPG96
     C0AMY42  C2019 03 15.36450 13 14 42.36 -17 38 46.0    ~3FC3 19.6 GVNEOCPG96
     C0AMY42  C2019 03 15.37009 13 14 44.18 -17 37 33.0    ~3FC3 19.7 GVNEOCPG96
     C0AMY42  C2019 03 15.37569 13 14 45.97 -17 36 19.8    ~3FC3 19.8 GVNEOCPG96
     C0AMY42  C2019 03 15.48096 13 15 19.65 -17 13 42.5    ~3HHm 20.1 GVNEOCPG96
     C0AMY42  C2019 03 15.48232 13 15 20.07 -17 13 25.5    ~3HHm 20.1 GVNEOCPG96
     C0AMY42  C2019 03 15.48261 13 15 20.25 -17 13 20.9    ~3HHm 19.6 GVNEOCPG96
     C0AMY42  C2019 03 15.48290 13 15 20.31 -17 13 17.5    ~3HHm 19.7 GVNEOCPG96
     C0AMY42  C2019 03 17.50056 13 24 38.51 -12 18 46.0    ~3HHm 20.1 GVNEOCPG96
     C0AMY42  C2019 03 17.50096 13 24 38.59 -12 18 42.8    ~3HHm 20.3 GVNEOCPG96
     C0AMY42  C2019 03 17.50137 13 24 38.60 -12 18 41.7    ~3HHm 19.7 GVNEOCPG96
     C0AMY42  C2019 03 17.50177 13 24 38.68 -12 18 38.3    ~3HHm 21.1 GVNEOCPG96
     C0AMY42 KC2019 03 18NO\AstrometryK?D72redacted;xrtxjC\click\Z'$@Bw^QBO#xH21
     C0AMY42 KC2019 03 18obE$herebJCa094*lX'forN:;Ur\Qp@)lJ`explanationEsI%r'H21
     C0AMY42  C2019 03 18.31927813 27 01.86 -11 04 18.2    ~3I8I 20.8 GVNEOCPH01
     C0AMY42  C2019 03 18.32307713 27 02.17 -11 03 59.9    ~3I8I 20.8 GVNEOCPH01
     C0AMY42  C2019 03 18.33405713 27 03.05 -11 03 07.0    ~3I8I 20.5 GVNEOCPH01
     C0AMY42  C2019 03 18.34160313 27 03.65 -11 02 30.7    ~3I8I 20.2 GVNEOCPH01

Station data:
(G96) Mt. Lemmon Survey  (N32.442754 W110.788720)  US/Arizona.  Observers B.
   M. Africano, E. J. Christensen, G. A. Farneth, D. C. Fuls, A. R. Gibbs, A.
   D. Grauer, H. Groeller, J. A. Johnson, R. A. Kowalski, S. M. Larson, G. J.
   Leonard, R. L. Seaman, F. C. Shelly. 1.5-m reflector + 10K CCD.
(H01) Magdalena Ridge Observatory, Socorro  (N33.984833 W107.189333)  US/New
   Mexico.  Observers W. H. Ryan, E. V. Ryan. Measurer W. H. Ryan. 2.4-m
   f/8.9 reflector + CCD.
(H21) Astronomical Research Observatory, Westfield  (N39.483057 W87.968270)
   US/Illinois. 0.76-m f/3.0 astrograph + CCD.

Orbital elements:  C0AMY42
   Perihelion 2019 Feb 11.013437 +/- 0.0113 TT =  0:19:21 (JD 2458525.513437)
Epoch 2019 Mar 18.0 TT = JDT 2458560.5   Earth MOID: 0.0093   Ju: 0.7150
M   7.96223775 +/- 0.043            Ma: 0.0490                AutoNEOCP
n   0.22757988 +/- 0.00117          Peri.  311.19126 +/- 0.0042
a   2.65693016 +/- 0.00912          Node   180.01460 +/- 0.0022
e   0.6584553 +/- 0.00121           Incl.    3.04241 +/- 0.0045
P   4.33                   H 26.3   G  0.15   U  8.2  
q 0.90746029 +/- 0.000102    Q 4.40640002 +/- 0.0184
From 18 observations 2019 Mar. 15-18; mean residual 0".31
Residuals in arcseconds: 
190315 G96  .23-  .57+    190315 G96  .68+  .47+    190318 H21  .20-  .08-    
190315 G96  .01-  .29-    190315 G96  .18+  .18+    190318 H21  .15-  .35+    
190315 G96  .18+  .28-    190317 G96  .08-  .00     190318 H01  .15+  .07-    
190315 G96  .02-  .11-    190317 G96  .32+  .69+    190318 H01  .15+  .08-    
190315 G96  .21-  .11-    190317 G96  .34-  .79-    190318 H01  .09+  .08-    
190315 G96  .54-  .43-    190317 G96  .06+  .09+    190318 H01  .10+  .12-    

Ephemerides (geocentric):
Date (UTC) HH   RA              Dec         delta   r     elong  mag " sig PA
---- -- -- --  -------------   -----------  ------ ------ -----  --- ---- ---
2019 03 20 14  13 30 53.413   -08 41 21.09  .06536 1.0555 155.2 21.6 .129  49
2019 03 20 15  13 30 56.501   -08 39 21.92  .06564 1.0557 155.2 21.6 .133  48
2019 03 20 16  13 30 59.556   -08 37 23.75  .06593 1.0560 155.2 21.6 .138  48
2019 03 20 17  13 31 02.577   -08 35 26.57  .06622 1.0563 155.3 21.6 .142  47
2019 03 20 18  13 31 05.564   -08 33 30.36  .06650 1.0566 155.3 21.6 .147  46
2019 03 20 19  13 31 08.519   -08 31 35.12  .06679 1.0569 155.4 21.6 .151  45
2019 03 20 20  13 31 11.442   -08 29 40.83  .06708 1.0572 155.4 21.6 .156  45
2019 03 20 21  13 31 14.332   -08 27 47.48  .06737 1.0575 155.5 21.7 .160  44
2019 03 20 22  13 31 17.191   -08 25 55.06  .06765 1.0578 155.5 21.7 .165  44
2019 03 20 23  13 31 20.018   -08 24 03.55  .06794 1.0581 155.5 21.7 .169  43
2019 03 21 00  13 31 22.815   -08 22 12.95  .06823 1.0584 155.6 21.7 .174  43
2019 03 21 01  13 31 25.581   -08 20 23.25  .06852 1.0587 155.6 21.7 .178  42
2019 03 21 02  13 31 28.317   -08 18 34.42  .06880 1.0590 155.7 21.7 .183  42
2019 03 21 03  13 31 31.023   -08 16 46.47  .06909 1.0593 155.7 21.7 .187  41
2019 03 21 04  13 31 33.700   -08 14 59.38  .06938 1.0596 155.7 21.7 .192  41
2019 03 21 05  13 31 36.347   -08 13 13.15  .06967 1.0599 155.8 21.7 .196  41
2019 03 21 06  13 31 38.966   -08 11 27.75  .06996 1.0602 155.8 21.7 .201  40
2019 03 21 07  13 31 41.556   -08 09 43.18  .07024 1.0605 155.9 21.7 .205  40
2019 03 21 08  13 31 44.118   -08 07 59.44  .07053 1.0608 155.9 21.7 .210  40
2019 03 21 09  13 31 46.653   -08 06 16.50  .07082 1.0611 155.9 21.8 .214  39
2019 03 21 10  13 31 49.160   -08 04 34.37  .07111 1.0614 156.0 21.8 .219  39
2019 03 21 11  13 31 51.640   -08 02 53.03  .07140 1.0617 156.0 21.8 .223  39
2019 03 21 12  13 31 54.092   -08 01 12.47  .07168 1.0620 156.1 21.8 .227  39
2019 03 21 13  13 31 56.519   -07 59 32.69  .07197 1.0622 156.1 21.8 .232  38
2019 03 21 14  13 31 58.919   -07 57 53.67  .07226 1.0625 156.1 21.8 .236  38
2019 03 21 15  13 32 01.293   -07 56 15.40  .07255 1.0628 156.2 21.8 .241  38
2019 03 21 16  13 32 03.641   -07 54 37.89  .07284 1.0631 156.2 21.8 .245  38
2019 03 21 17  13 32 05.964   -07 53 01.11  .07313 1.0634 156.3 21.8 .249  38
2019 03 21 18  13 32 08.262   -07 51 25.06  .07342 1.0637 156.3 21.8 .254  37
2019 03 21 19  13 32 10.535   -07 49 49.73  .07370 1.0640 156.3 21.8 .258  37
2019 03 21 20  13 32 12.784   -07 48 15.11  .07399 1.0643 156.4 21.8 .262  37
2019 03 21 21  13 32 15.008   -07 46 41.20  .07428 1.0646 156.4 21.9 .267  37
2019 03 21 22  13 32 17.208   -07 45 07.99  .07457 1.0649 156.5 21.9 .271  37
2019 03 21 23  13 32 19.384   -07 43 35.47  .07486 1.0652 156.5 21.9 .275  37
2019 03 22 00  13 32 21.537   -07 42 03.62  .07515 1.0655 156.5 21.9 .280  37
2019 03 22 01  13 32 23.666   -07 40 32.46  .07544 1.0658 156.6 21.9 .284  37
2019 03 22 02  13 32 25.773   -07 39 01.95  .07573 1.0661 156.6 21.9 .288  36
2019 03 22 03  13 32 27.856   -07 37 32.11  .07602 1.0664 156.7 21.9 .292  36
2019 03 22 04  13 32 29.917   -07 36 02.92  .07631 1.0667 156.7 21.9 .297  36
2019 03 22 05  13 32 31.956   -07 34 34.37  .07660 1.0670 156.7 21.9 .301  36
2019 03 22 06  13 32 33.973   -07 33 06.46  .07689 1.0673 156.8 21.9 .305  36
2019 03 22 07  13 32 35.967   -07 31 39.18  .07717 1.0676 156.8 21.9 .309  36
2019 03 22 08  13 32 37.941   -07 30 12.53  .07746 1.0679 156.9 21.9 .313  36
2019 03 22 09  13 32 39.892   -07 28 46.49  .07775 1.0682 156.9 21.9 .317  36
2019 03 22 10  13 32 41.823   -07 27 21.06  .07804 1.0685 156.9 21.9 .322  36
2019 03 22 11  13 32 43.732   -07 25 56.23  .07833 1.0688 157.0 22.0 .326  36
2019 03 22 12  13 32 45.621   -07 24 32.00  .07862 1.0691 157.0 22.0 .330  36
2019 03 22 13  13 32 47.489   -07 23 08.37  .07891 1.0694 157.1 22.0 .334  36